International Skating Union - Official Site

Essent ISU World Cup Chelyabinsk
November 18-20, 2011

Draw | Lap Times | Index | World Cup

Referee: Erik  ØSMUNDSET  (NOR)
Starter: Roman  DANILOV  (RUS)
StartTime: EndTime: Air Temp: Ice Temp: Humidity:
17:30 18:21 12 ℃ -5.8 ℃ 31%
Result Team Pursuit Men
Rankings as of Nov 20 2011 6:52PM
Rank: No.: Team: Nation: Time: Behind: Points:
Total 13
1 7 Netherlands (174) Sven KRAMER (168) Jan BLOKHUIJSEN (178) Wouter OLDE HEUVEL NED NED 3:41.250.5 - 17.39 - (17.3)
1.0 - 30.59 - (13.2)
1.5 - 43.85 - (13.2)
2.0 - 57.18 - (13.3)
2.5 - 1:10.47 - (13.3)
3.0 - 1:24.02 - (13.5)
3.5 - 1:37.43 - (13.4)
4.0 - 1:51.04 - (13.6)
4.5 - 2:04.80 - (13.7)
5.0 - 2:18.50 - (13.7)
5.5 - 2:31.92 - (13.4)
6.0 - 2:45.63 - (13.7)
6.5 - 2:59.32 - (13.6)
7.0 - 3:13.22 - (13.9)
7.5 - 3:27.17 - (13.9)
8.0 - 3:41.25 - (14.1)
100
2 10 USA (215) Shani DAVIS (218) Jonathan KUCK (217) Brian HANSEN USA USA 3:44.520.5 - 17.84 - (17.8)
1.0 - 31.28 - (13.4)
1.5 - 45.08 - (13.8)
2.0 - 58.73 - (13.6)
2.5 - 1:12.49 - (13.7)
3.0 - 1:26.00 - (13.5)
3.5 - 1:39.40 - (13.4)
4.0 - 1:53.16 - (13.7)
4.5 - 2:06.85 - (13.7)
5.0 - 2:20.70 - (13.8)
5.5 - 2:34.84 - (14.1)
6.0 - 2:48.95 - (14.1)
6.5 - 3:02.86 - (13.9)
7.0 - 3:16.95 - (14.0)
7.5 - 3:30.48 - (13.5)
8.0 - 3:44.52 - (13.9)
3.27 80
3 8 Germany (130) Patrick BECKERT (136) Marco WEBER (129) Alexej BAUMGÄRTNER GER GER 3:45.290.5 - 18.01 - (18.0)
1.0 - 31.72 - (13.7)
1.5 - 45.20 - (13.4)
2.0 - 58.69 - (13.4)
2.5 - 1:12.06 - (13.3)
3.0 - 1:25.90 - (13.6)
3.5 - 1:39.79 - (13.8)
4.0 - 1:53.85 - (14.0)
4.5 - 2:07.92 - (14.0)
5.0 - 2:22.10 - (14.1)
5.5 - 2:35.82 - (13.7)
6.0 - 2:49.69 - (13.8)
6.5 - 3:03.67 - (13.9)
7.0 - 3:17.41 - (13.7)
7.5 - 3:31.34 - (13.9)
8.0 - 3:45.29 - (13.8)
4.04 70
4 1 Korea (164) Seung-Hoon LEE (157) Hyung-Joon JOO (159) Byung-Wook KO KOR KOR 3:45.560.5 - 18.06 - (18.0)
1.0 - 31.42 - (13.3)
1.5 - 44.94 - (13.5)
2.0 - 58.22 - (13.2)
2.5 - 1:11.72 - (13.5)
3.0 - 1:25.39 - (13.6)
3.5 - 1:39.36 - (13.9)
4.0 - 1:53.23 - (13.8)
4.5 - 2:07.22 - (13.9)
5.0 - 2:21.18 - (13.9)
5.5 - 2:35.38 - (14.2)
6.0 - 2:49.71 - (14.3)
6.5 - 3:04.12 - (14.4)
7.0 - 3:18.07 - (13.9)
7.5 - 3:31.85 - (13.7)
8.0 - 3:45.56 - (13.6)
4.31 60
5 13 Russia (209) Ivan SKOBREV (204) Yevgeny LALENKOV (197) Pavel BAYNOV RUS RUS 3:45.900.5 - 17.79 - (17.8)
1.0 - 31.34 - (13.5)
1.5 - 44.61 - (13.2)
2.0 - 58.35 - (13.7)
2.5 - 1:11.91 - (13.5)
3.0 - 1:25.89 - (13.9)
3.5 - 1:40.06 - (14.1)
4.0 - 1:54.38 - (14.3)
4.5 - 2:08.19 - (13.8)
5.0 - 2:22.22 - (14.0)
5.5 - 2:35.78 - (13.5)
6.0 - 2:49.65 - (13.8)
6.5 - 3:03.43 - (13.7)
7.0 - 3:17.42 - (13.9)
7.5 - 3:31.47 - (14.0)
8.0 - 3:45.90 - (14.4)
4.65 50
6 12 Norway (187) Sverre LUNDE PEDERSEN (186) Håvard LORENTZEN (183) Kristian Reistad FREDRIKSEN NOR NOR 3:47.450.5 - 17.35 - (17.3)
1.0 - 30.86 - (13.5)
1.5 - 44.41 - (13.5)
2.0 - 58.12 - (13.7)
2.5 - 1:12.11 - (13.9)
3.0 - 1:26.20 - (14.0)
3.5 - 1:40.25 - (14.0)
4.0 - 1:54.12 - (13.8)
4.5 - 2:08.06 - (13.9)
5.0 - 2:22.27 - (14.2)
5.5 - 2:36.73 - (14.4)
6.0 - 2:50.91 - (14.1)
6.5 - 3:05.15 - (14.2)
7.0 - 3:19.10 - (13.9)
7.5 - 3:33.12 - (14.0)
8.0 - 3:47.45 - (14.5)
6.20 45
7 2 France (126) Alexis CONTIN (128) Benjamin MACÉ (127) Ewen FERNANDEZ FRA FRA 3:48.090.5 - 17.87 - (17.8)
1.0 - 31.13 - (13.2)
1.5 - 44.37 - (13.2)
2.0 - 57.78 - (13.4)
2.5 - 1:11.37 - (13.5)
3.0 - 1:25.07 - (13.7)
3.5 - 1:39.06 - (13.9)
4.0 - 1:53.13 - (14.0)
4.5 - 2:07.48 - (14.3)
5.0 - 2:21.61 - (14.1)
5.5 - 2:36.02 - (14.4)
6.0 - 2:50.44 - (14.4)
6.5 - 3:04.93 - (14.4)
7.0 - 3:19.30 - (14.3)
7.5 - 3:33.67 - (14.3)
8.0 - 3:48.09 - (14.4)
6.84 40
8 9 Poland (190) Zbigniew BRODKA (193) Konrad NIEDZWIEDZKI (192) Roland CIESLAK POL POL 3:49.140.5 - 17.92 - (17.9)
1.0 - 31.87 - (13.9)
1.5 - 45.33 - (13.4)
2.0 - 59.04 - (13.7)
2.5 - 1:13.00 - (13.9)
3.0 - 1:26.95 - (13.9)
3.5 - 1:40.76 - (13.8)
4.0 - 1:54.75 - (13.9)
4.5 - 2:08.55 - (13.8)
5.0 - 2:22.44 - (13.9)
5.5 - 2:36.35 - (13.9)
6.0 - 2:50.66 - (14.3)
6.5 - 3:04.97 - (14.3)
7.0 - 3:19.66 - (14.6)
7.5 - 3:34.28 - (14.6)
8.0 - 3:49.14 - (14.9)
7.89 36
9 11 Canada (113) Denny MORRISON (115) Philippe RIOPEL (106) Jordan BELCHOS CAN CAN 3:49.250.5 - 17.59 - (17.6)
1.0 - 30.92 - (13.3)
1.5 - 44.20 - (13.2)
2.0 - 57.59 - (13.3)
2.5 - 1:11.08 - (13.4)
3.0 - 1:24.76 - (13.6)
3.5 - 1:38.39 - (13.6)
4.0 - 1:52.31 - (13.9)
4.5 - 2:06.29 - (13.9)
5.0 - 2:20.43 - (14.1)
5.5 - 2:34.73 - (14.3)
6.0 - 2:49.60 - (14.8)
6.5 - 3:04.01 - (14.4)
7.0 - 3:18.72 - (14.7)
7.5 - 3:33.84 - (15.1)
8.0 - 3:49.25 - (15.4)
8.00 32
10 6 Italy (137) Matteo ANESI (140) Luca STEFANI (139) Mirko Giacomo NENZI ITA ITA 3:51.530.5 - 17.78 - (17.7)
1.0 - 31.52 - (13.7)
1.5 - 45.58 - (14.0)
2.0 - 59.21 - (13.6)
2.5 - 1:12.90 - (13.6)
3.0 - 1:26.80 - (13.8)
3.5 - 1:41.15 - (14.3)
4.0 - 1:55.59 - (14.4)
4.5 - 2:10.04 - (14.4)
5.0 - 2:24.21 - (14.1)
5.5 - 2:38.27 - (14.0)
6.0 - 2:52.81 - (14.5)
6.5 - 3:07.56 - (14.7)
7.0 - 3:22.13 - (14.5)
7.5 - 3:36.80 - (14.6)
8.0 - 3:51.53 - (14.7)
10.28 28
11 4 Kazakhstan (150) Dmitry BABENKO (156) Aleksandr ZHIGIN (151) Maxim BAKLASHKIN KAZ KAZ 3:57.880.5 - 18.13 - (18.1)
1.0 - 32.27 - (14.1)
1.5 - 46.44 - (14.1)
2.0 - 1:01.13 - (14.5)
2.5 - 1:15.14 - (14.0)
3.0 - 1:29.44 - (14.3)
3.5 - 1:43.78 - (14.3)
4.0 - 1:58.09 - (14.3)
4.5 - 2:12.25 - (14.1)
5.0 - 2:26.52 - (14.2)
5.5 - 2:41.01 - (14.5)
6.0 - 2:56.23 - (15.2)
6.5 - 3:12.05 - (15.8)
7.0 - 3:27.56 - (15.3)
7.5 - 3:42.66 - (15.1)
8.0 - 3:57.88 - (15.2)
16.63 24
12 5 Czech Republic (120) Zdenek HASELBERGER (121) Pavel KULMA (122) Milan SÁBLIK CZE CZE 4:00.821.0 - 33.29 - (14.5)
1.5 - 47.67 - (14.3)
2.0 - 1:02.03 - (14.3)
2.5 - 1:16.51 - (14.4)
3.0 - 1:30.56 - (14.0)
3.5 - 1:44.72 - (14.1)
4.0 - 1:59.50 - (14.7)
4.5 - 2:14.50 - (15.0)
5.0 - 2:29.72 - (15.2)
5.5 - 2:44.50 - (14.7)
6.0 - 2:59.88 - (15.3)
6.5 - 3:14.93 - (15.0)
7.0 - 3:30.56 - (15.6)
7.5 - 3:45.50 - (14.9)
8.0 - 4:00.82 - (15.3)
19.57 21
13 3 Japan (142) Hiroki HIRAKO (145) Teppei MORI (149) Norimasa ZAIKE JPN JPN DQ0.5 - 27.28 - (27.2)
1.0 - 43.41 - (16.1)
1.5 - 58.07 - (14.6)
2.0 - 1:12.24 - (14.1)
2.5 - 1:26.33 - (14.0)
3.0 - 1:40.41 - (14.0)
3.5 - 1:54.59 - (14.1)
4.0 - 2:08.28 - (13.6)
4.5 - 2:22.21 - (13.9)
5.0 - 2:36.39 - (14.1)
5.5 - 2:50.90 - (14.5)
6.0 - 3:05.63 - (14.7)
6.5 - 3:20.44 - (14.8)
7.0 - 3:35.34 - (14.9)
7.5 - 3:50.47 - (15.1)
8.0 - 4:06.05 - (15.5)
0